Location: Croisilles
(50.1998°N, 2.8793°E)
Time: 21:08:14
(UTC+00:00)

H-2A R/B - Pass Details

Date: 21 January 2021
Orbit: 734 x 836 km, 98.2° (Epoch: 02 March)

Event Time Altitude Azimuth Distance (km) Brightness Sun altitude
Rises 19:19:49 0° 192° (SSW) 3,174 5.3 -27.7°
Reaches altitude 10° 19:22:17 10° 202° (SSW) 2,267 4.6 -28.1°
Maximum altitude 19:26:45 32° 266° (W) 1,285 3.7 -28.8°
Drops below altitude 10° 19:31:20 10° 329° (NNW) 2,336 4.9 -29.5°
Sets 19:33:56 0° 339° (NNW) 3,286 5.6 -30.0°
